sat.trackr.live / text

‹ back to catalog

STARLINK-5347

NORAD 57137 · 2023-090AN

PAYLOAD ACTIVE UNKNOWN

§ Identity

Operator
Country
US
Launch date
2023-06-23
Launch site
AFETR
Launch vehicle
Mass (kg)
RCS (m²)

Purposes: comms

External: N2YO · Heavens-Above · Gunter

§ Orbital elements

Epoch: 2026-05-25T04:00:52.774272Z

Period
94.27 min
Inclination
43.0030°
Eccentricity
0.0001007
Mean motion
15.27576001 rev/d
Perigee alt
482.4 km
Apogee alt
483.8 km
Semi-major
6,861.2 km
B*
1.6455e-5
RAAN
191.0992°
Arg perigee
280.7227°
Mean anomaly
79.3511°
Rev number
16,205

§ Raw data

STARLINK-53471 57137U 23090AN  26145.16727748  .00000191  00000+0  16455-4 0  99922 57137  43.0030 191.0992 0001007 280.7227  79.3511 15.27576001162056

JSON: /api/v1/satellites/57137 · /tle

For live sub-satellite position, see the globe view (requires WebGL).

§ Visibility from observer

Set your observer location to see the next 7 days of passes ≥ 10°. The values pass through the URL so the page stays shareable.

No JS? Fill the form by hand. The geolocation button needs JavaScript.